Weather History for Cleveland, OH

Change the Weather History Date:

Thursday, June 27, 2013

  Actual Average Record
Temperature  
Mean Temperature 75 °F 72 °F  
Max Temperature 81 °F 82 °F 98 °F (1944)
Min Temperature 68 °F 63 °F 44 °F (1981)
Degree Days  
Heating Degree Days 0 0  
Month to date heating degree days 39 41  
Since 1 June heating degree days 39 41  
Since 1 July heating degree days 5809 5761  
Cooling Degree Days 10 8  
Month to date cooling degree days 147 143  
Year to date cooling degree days 261 202  
Since 1 June cooling degree days 147 143  
Growing Degree Days 25 (Base 50)    
Moisture  
Dew Point 67 °F    
Average Humidity 76    
Maximum Humidity 90    
Minimum Humidity 62    
Precipitation  
Precipitation 0.55 in 0.11 in 1.44 in (1989)
Month to date precipitation 7.53 3.10  
Year to date precipitation 20.12 18.24  
Snow  
Snow 0.00 in 0.00 in - ()
Month to date snowfall 0.0 0.0  
Since 1 June snowfall 0.0 0.0  
Since 1 July snowfall 51.7 68.1  
Snow Depth 0.00 in    
Sea Level Pressure  
Sea Level Pressure 29.74 in    
Wind  
Wind Speed 5 mph (West)    
Max Wind Speed 13 mph    
Max Gust Speed 16 mph    
Visibility 9 miles    
Events Rain    
T = Trace of Precipitation, MM = Missing Value Source: NWS Daily Summary

Daily Weather History Graph

Daily Weather History Graph

Search for Another Location

Airport:

Trip Planner

Search our weather history database for the weather conditions in past years. The results will help you decide how hot, cold, wet, or windy it might be!

Date:

Astronomy

Jun. 27, 2013 Rise Set
Actual Time 5:55 AM EDT 9:05 PM EDT
Civil Twilight 5:22 AM EDT 9:38 PM EDT
Nautical Twilight 4:38 AM EDT 10:22 PM EDT
Astronomical Twilight 3:46 AM EDT 11:14 PM EDT
Moon 11:57 PM EDT (6/27) 10:59 AM EDT (6/27)
Length of Visible Light 16h 16m
Length of Day
15h 09m
Waning Gibbous, 76% of the Moon is Illuminated
Jun 27
Waning Gibbous
Jun 30
Last Quarter
Jul 8
New
Jul 15
First Quarter
Jul 22
Full

Hourly Weather History & Observations

Time (EDT) Temp. Heat Index Dew Point Humidity Pressure Visibility Wind Dir Wind Speed Gust Speed Precip Events Conditions
12:51 AM 72.0 °F - 68.0 °F 87% 29.79 in 10.0 mi SSW 6.9 mph - 0.00 in   Overcast
1:51 AM 71.1 °F - 68.0 °F 90% 29.78 in 10.0 mi South 8.1 mph - 0.00 in Rain Light Rain
2:51 AM 71.1 °F - 68.0 °F 90% 29.78 in 5.0 mi SSW 8.1 mph - 0.03 in Rain Light Rain
3:17 AM 70.0 °F - 66.9 °F 90% 29.79 in 2.5 mi SW 9.2 mph - 0.09 in Rain Light Rain
3:30 AM 70.0 °F - 66.9 °F 90% 29.79 in 3.0 mi SW 6.9 mph - 0.25 in Rain Light Rain
3:51 AM 70.0 °F - 66.9 °F 90% 29.77 in 6.0 mi SSW 5.8 mph - 0.30 in Rain Light Rain
4:51 AM 69.1 °F - 66.9 °F 93% 29.76 in 6.0 mi SSW 6.9 mph - 0.05 in Rain Light Rain
5:51 AM 69.1 °F - 66.9 °F 93% 29.76 in 5.0 mi SSW 3.5 mph - 0.08 in Rain Light Rain
6:51 AM 69.1 °F - 66.0 °F 90% 29.76 in 6.0 mi SW 4.6 mph - 0.06 in Rain Light Rain
7:51 AM 69.1 °F - 66.0 °F 90% 29.75 in 10.0 mi Calm Calm - 0.00 in   Overcast
8:51 AM 70.0 °F - 66.9 °F 90% 29.75 in 10.0 mi SW 3.5 mph - 0.00 in Rain Light Rain
9:17 AM 71.1 °F - 66.0 °F 84% 29.77 in 10.0 mi Calm Calm - 0.00 in   Overcast
9:51 AM 73.0 °F - 66.0 °F 79% 29.75 in 10.0 mi Calm Calm - 0.00 in   Overcast
10:22 AM 73.0 °F - 66.9 °F 81% 29.77 in 10.0 mi Calm Calm - 0.00 in Rain Light Rain
10:51 AM 73.9 °F - 68.0 °F 82% 29.75 in 10.0 mi Calm Calm - 0.00 in Rain Light Rain
11:51 AM 73.9 °F - 66.0 °F 76% 29.75 in 10.0 mi NNE 6.9 mph - 0.00 in   Overcast
12:09 PM 75.0 °F - 66.0 °F 73% 29.76 in 10.0 mi NNE 10.4 mph - N/A   Overcast
12:51 PM 75.9 °F - 66.9 °F 74% 29.75 in 10.0 mi NNE 5.8 mph - N/A   Overcast
1:51 PM 73.9 °F - 66.0 °F 76% 29.75 in 10.0 mi North 9.2 mph - N/A   Overcast
2:51 PM 75.9 °F - 66.9 °F 74% 29.73 in 10.0 mi North 6.9 mph - N/A   Mostly Cloudy
3:51 PM 79.0 °F - 68.0 °F 69% 29.72 in 10.0 mi North 5.8 mph - N/A   Scattered Clouds
4:51 PM 80.1 °F 82.3 °F 66.9 °F 64% 29.70 in 10.0 mi NNW 5.8 mph - N/A   Scattered Clouds
5:51 PM 80.1 °F 82.1 °F 66.0 °F 62% 29.68 in 10.0 mi Variable 3.5 mph - N/A   Scattered Clouds
6:51 PM 75.9 °F - 64.9 °F 69% 29.70 in 10.0 mi NNW 9.2 mph - N/A   Mostly Cloudy
7:51 PM 73.0 °F - 64.9 °F 76% 29.72 in 10.0 mi North 9.2 mph - N/A   Mostly Cloudy
8:51 PM 72.0 °F - 66.9 °F 84% 29.70 in 10.0 mi North 5.8 mph - 0.01 in Rain Light Rain
9:51 PM 71.1 °F - 66.9 °F 87% 29.68 in 10.0 mi South 3.5 mph - 0.02 in   Mostly Cloudy
10:51 PM 70.0 °F - 66.9 °F 90% 29.68 in 10.0 mi Calm Calm - 0.00 in   Mostly Cloudy
11:51 PM 69.1 °F - 66.0 °F 90% 29.65 in 10.0 mi Calm Calm - N/A   Mostly Cloudy